Time,TemperatureF,DewpointF,PressureIn,WindDirection,WindDirectionDegrees,WindSpeedMPH,WindSpeedGustMPH,Humidity,HourlyPrecipIn,Conditions,Clouds,dailyrainin,SoftwareType,DateUTC
2013-07-06 00:00:00,69.3,64.9,30.04,South,184,0.0,0.0,86,0.00,,,0.00,LWC V1.12 B30,2013-07-06 04:00:00,
2013-07-06 00:02:00,69.3,64.9,30.04,South,184,0.0,0.0,86,0.00,,,0.00,LWC V1.12 B30,2013-07-06 04:02:00,
2013-07-06 00:04:00,69.1,64.7,30.04,South,184,0.0,0.0,86,0.00,,,0.00,LWC V1.12 B30,2013-07-06 04:04:00,
2013-07-06 00:08:00,69.1,65.1,30.04,South,184,0.0,0.0,87,0.00,,,0.00,LWC V1.12 B30,2013-07-06 04:08:00,
2013-07-06 00:12:00,68.9,64.9,30.05,South,184,0.0,0.0,87,0.00,,,0.00,LWC V1.12 B30,2013-07-06 04:12:00,
2013-07-06 00:16:00,68.9,64.9,30.05,South,184,0.0,0.0,87,0.00,,,0.00,LWC V1.12 B30,2013-07-06 04:16:00,
2013-07-06 00:22:00,68.8,65.1,30.05,South,184,0.0,0.0,88,0.00,,,0.00,LWC V1.12 B30,2013-07-06 04:22:00,
2013-07-06 00:28:00,68.8,65.1,30.05,South,184,0.0,0.0,88,0.00,,,0.00,LWC V1.12 B30,2013-07-06 04:28:00,
2013-07-06 00:34:00,68.6,64.9,30.06,South,184,0.0,0.0,88,0.00,,,0.00,LWC V1.12 B30,2013-07-06 04:34:00,
2013-07-06 00:40:00,68.6,65.2,30.05,South,184,0.0,0.0,89,0.00,,,0.00,LWC V1.12 B30,2013-07-06 04:40:00,
2013-07-06 00:46:00,68.6,65.2,30.05,South,184,0.0,0.0,89,0.00,,,0.00,LWC V1.12 B30,2013-07-06 04:46:00,
2013-07-06 00:53:00,68.6,65.2,30.05,South,184,0.0,0.0,89,0.00,,,0.00,LWC V1.12 B30,2013-07-06 04:53:00,
2013-07-06 00:58:00,68.6,65.5,30.05,South,184,0.0,0.0,90,0.00,,,0.00,LWC V1.12 B30,2013-07-06 04:58:00,
2013-07-06 01:04:00,68.8,65.7,30.05,South,184,0.0,0.0,90,0.00,,,0.00,LWC V1.12 B30,2013-07-06 05:04:00,
2013-07-06 01:11:00,68.8,66.1,30.05,South,184,0.0,0.0,91,0.00,,,0.00,LWC V1.12 B30,2013-07-06 05:11:00,
2013-07-06 01:17:00,68.6,65.9,30.05,South,184,0.0,0.0,91,0.00,,,0.00,LWC V1.12 B30,2013-07-06 05:17:00,
2013-07-06 01:23:00,68.4,65.7,30.05,South,184,0.0,0.0,91,0.00,,,0.00,LWC V1.12 B30,2013-07-06 05:23:00,
2013-07-06 01:29:00,68.4,65.7,30.05,South,184,0.0,0.0,91,0.00,,,0.00,LWC V1.12 B30,2013-07-06 05:29:00,
2013-07-06 01:35:00,68.4,65.7,30.05,South,184,0.0,0.0,91,0.00,,,0.00,LWC V1.12 B30,2013-07-06 05:35:00,
2013-07-06 01:41:00,68.3,65.9,30.05,South,184,0.0,0.0,92,0.00,,,0.00,LWC V1.12 B30,2013-07-06 05:41:00,
2013-07-06 01:47:00,68.3,65.9,30.05,South,184,0.0,0.0,92,0.00,,,0.00,LWC V1.12 B30,2013-07-06 05:47:00,
2013-07-06 01:53:00,68.3,65.9,30.05,South,184,0.0,0.0,92,0.00,,,0.00,LWC V1.12 B30,2013-07-06 05:53:00,
2013-07-06 01:59:00,68.1,65.7,30.05,South,184,0.0,0.0,92,0.00,,,0.00,LWC V1.12 B30,2013-07-06 05:59:00,
2013-07-06 02:05:00,67.9,65.5,30.04,South,184,0.0,0.0,92,0.00,,,0.00,LWC V1.12 B30,2013-07-06 06:05:00,
2013-07-06 02:11:00,67.8,65.7,30.04,South,184,0.0,0.0,93,0.00,,,0.00,LWC V1.12 B30,2013-07-06 06:11:00,
2013-07-06 02:17:00,67.8,65.7,30.04,South,184,0.0,0.0,93,0.00,,,0.00,LWC V1.12 B30,2013-07-06 06:17:00,
2013-07-06 02:23:00,67.6,65.5,30.04,South,184,0.0,0.0,93,0.00,,,0.00,LWC V1.12 B30,2013-07-06 06:23:00,
2013-07-06 02:29:00,67.3,65.2,30.04,South,184,0.0,0.0,93,0.00,,,0.00,LWC V1.12 B30,2013-07-06 06:29:00,
2013-07-06 02:35:00,67.1,65.0,30.05,South,184,0.0,0.0,93,0.00,,,0.00,LWC V1.12 B30,2013-07-06 06:35:00,
2013-07-06 02:41:00,67.1,65.0,30.05,South,184,0.0,0.0,93,0.00,,,0.00,LWC V1.12 B30,2013-07-06 06:41:00,
2013-07-06 02:47:00,67.1,65.0,30.05,South,184,0.0,0.0,93,0.00,,,0.00,LWC V1.12 B30,2013-07-06 06:47:00,
2013-07-06 02:53:00,67.1,65.3,30.04,South,184,0.0,0.0,94,0.00,,,0.00,LWC V1.12 B30,2013-07-06 06:53:00,
2013-07-06 02:59:00,67.1,65.3,30.04,South,184,0.0,0.0,94,0.00,,,0.00,LWC V1.12 B30,2013-07-06 06:59:00,
2013-07-06 03:05:00,66.9,65.1,30.04,South,184,0.0,0.0,94,0.00,,,0.00,LWC V1.12 B30,2013-07-06 07:05:00,
2013-07-06 03:11:00,66.8,65.0,30.04,South,184,0.0,0.0,94,0.00,,,0.00,LWC V1.12 B30,2013-07-06 07:11:00,
2013-07-06 03:17:00,66.6,64.8,30.04,South,184,0.0,0.0,94,0.00,,,0.00,LWC V1.12 B30,2013-07-06 07:17:00,
2013-07-06 03:23:00,66.6,64.8,30.04,South,184,0.0,0.0,94,0.00,,,0.00,LWC V1.12 B30,2013-07-06 07:23:00,
2013-07-06 03:29:00,66.4,64.6,30.04,South,184,0.0,0.0,94,0.00,,,0.00,LWC V1.12 B30,2013-07-06 07:29:00,
2013-07-06 03:35:00,66.9,65.4,30.04,South,184,0.0,0.0,95,0.00,,,0.00,LWC V1.12 B30,2013-07-06 07:35:00,
2013-07-06 03:41:00,66.9,65.4,30.04,South,184,0.0,0.0,95,0.00,,,0.00,LWC V1.12 B30,2013-07-06 07:41:00,
2013-07-06 03:47:00,66.6,64.8,30.04,South,184,0.0,0.0,94,0.00,,,0.00,LWC V1.12 B30,2013-07-06 07:47:00,
2013-07-06 03:53:00,66.8,65.3,30.04,South,184,0.0,0.0,95,0.00,,,0.00,LWC V1.12 B30,2013-07-06 07:53:00,
2013-07-06 03:59:00,66.9,65.4,30.04,South,184,0.0,0.0,95,0.00,,,0.00,LWC V1.12 B30,2013-07-06 07:59:00,
2013-07-06 04:05:00,66.8,65.3,30.04,South,184,0.0,0.0,95,0.00,,,0.00,LWC V1.12 B30,2013-07-06 08:05:00,
2013-07-06 04:11:00,66.6,65.1,30.04,South,184,0.0,0.0,95,0.00,,,0.00,LWC V1.12 B30,2013-07-06 08:11:00,
2013-07-06 04:17:00,66.6,65.1,30.04,South,184,0.0,0.0,95,0.00,,,0.00,LWC V1.12 B30,2013-07-06 08:17:00,
2013-07-06 04:23:00,66.8,65.3,30.04,South,184,0.0,0.0,95,0.00,,,0.00,LWC V1.12 B30,2013-07-06 08:23:00,
2013-07-06 04:29:00,66.6,65.1,30.04,South,184,0.0,0.0,95,0.00,,,0.00,LWC V1.12 B30,2013-07-06 08:29:00,
2013-07-06 04:35:00,66.6,65.1,30.04,South,184,0.0,0.0,95,0.00,,,0.00,LWC V1.12 B30,2013-07-06 08:35:00,
2013-07-06 04:41:00,66.6,65.4,30.04,South,184,0.0,0.0,96,0.00,,,0.00,LWC V1.12 B30,2013-07-06 08:41:00,
2013-07-06 04:47:00,66.4,64.9,30.04,South,184,0.0,0.0,95,0.00,,,0.00,LWC V1.12 B30,2013-07-06 08:47:00,
2013-07-06 04:53:00,66.4,65.2,30.04,South,184,0.0,0.0,96,0.00,,,0.00,LWC V1.12 B30,2013-07-06 08:53:00,
2013-07-06 04:59:00,66.4,65.2,30.04,South,184,0.0,0.0,96,0.00,,,0.00,LWC V1.12 B30,2013-07-06 08:59:00,
2013-07-06 05:05:00,66.4,65.2,30.04,South,184,0.0,0.0,96,0.00,,,0.00,LWC V1.12 B30,2013-07-06 09:05:00,
2013-07-06 05:11:00,66.3,65.1,30.04,South,184,0.0,0.0,96,0.00,,,0.00,LWC V1.12 B30,2013-07-06 09:11:00,
2013-07-06 05:17:00,66.3,65.1,30.04,South,184,0.0,0.0,96,0.00,,,0.00,LWC V1.12 B30,2013-07-06 09:17:00,
2013-07-06 05:23:00,66.3,65.1,30.04,South,184,0.0,0.0,96,0.00,,,0.00,LWC V1.12 B30,2013-07-06 09:23:00,
2013-07-06 05:29:00,66.3,65.1,30.05,South,184,0.0,0.0,96,0.00,,,0.00,LWC V1.12 B30,2013-07-06 09:29:00,
2013-07-06 05:35:00,66.3,65.1,30.04,South,184,0.0,0.0,96,0.00,,,0.00,LWC V1.12 B30,2013-07-06 09:35:00,
2013-07-06 05:41:00,66.3,65.1,30.04,South,184,0.0,0.0,96,0.00,,,0.00,LWC V1.12 B30,2013-07-06 09:41:00,
2013-07-06 05:47:00,66.4,65.2,30.04,South,184,0.0,0.0,96,0.00,,,0.00,LWC V1.12 B30,2013-07-06 09:47:00,
2013-07-06 05:53:00,66.4,65.2,30.05,South,184,0.0,0.0,96,0.00,,,0.00,LWC V1.12 B30,2013-07-06 09:53:00,
2013-07-06 05:59:00,66.4,65.2,30.05,South,184,0.0,0.0,96,0.00,,,0.00,LWC V1.12 B30,2013-07-06 09:59:00,
2013-07-06 06:05:00,66.0,64.8,30.05,South,184,0.0,0.0,96,0.00,,,0.00,LWC V1.12 B30,2013-07-06 10:05:00,
2013-07-06 06:11:00,65.8,64.6,30.05,South,184,0.0,0.0,96,0.00,,,0.00,LWC V1.12 B30,2013-07-06 10:11:00,
2013-07-06 06:17:00,66.0,64.8,30.05,South,184,0.0,0.0,96,0.00,,,0.00,LWC V1.12 B30,2013-07-06 10:17:00,
2013-07-06 06:23:00,66.0,64.8,30.05,South,184,0.0,0.0,96,0.00,,,0.00,LWC V1.12 B30,2013-07-06 10:23:00,
2013-07-06 06:29:00,66.0,64.8,30.05,South,184,0.0,0.0,96,0.00,,,0.00,LWC V1.12 B30,2013-07-06 10:29:00,
2013-07-06 06:35:00,65.8,64.6,30.05,South,184,0.0,0.0,96,0.00,,,0.00,LWC V1.12 B30,2013-07-06 10:35:00,
2013-07-06 06:41:00,65.8,64.6,30.05,South,184,0.0,0.0,96,0.00,,,0.00,LWC V1.12 B30,2013-07-06 10:41:00,
2013-07-06 06:47:00,65.8,64.6,30.05,South,184,0.0,0.0,96,0.00,,,0.00,LWC V1.12 B30,2013-07-06 10:47:00,
2013-07-06 06:53:00,65.8,64.6,30.05,South,184,0.0,0.0,96,0.00,,,0.00,LWC V1.12 B30,2013-07-06 10:53:00,
2013-07-06 06:59:00,66.0,65.1,30.05,South,184,0.0,0.0,97,0.00,,,0.00,LWC V1.12 B30,2013-07-06 10:59:00,
2013-07-06 07:05:00,65.8,64.6,30.05,South,184,0.0,0.0,96,0.00,,,0.00,LWC V1.12 B30,2013-07-06 11:05:00,
2013-07-06 07:11:00,65.6,64.4,30.05,South,184,0.0,0.0,96,0.00,,,0.00,LWC V1.12 B30,2013-07-06 11:11:00,
2013-07-06 07:17:00,65.6,64.4,30.05,South,184,0.0,0.0,96,0.00,,,0.00,LWC V1.12 B30,2013-07-06 11:17:00,
2013-07-06 07:23:00,65.8,64.9,30.05,South,184,0.0,0.0,97,0.00,,,0.00,LWC V1.12 B30,2013-07-06 11:23:00,
2013-07-06 07:29:00,66.0,65.1,30.05,South,184,0.0,0.0,97,0.00,,,0.00,LWC V1.12 B30,2013-07-06 11:29:00,
2013-07-06 07:35:00,66.4,65.5,30.05,South,184,0.0,0.0,97,0.00,,,0.00,LWC V1.12 B30,2013-07-06 11:35:00,
2013-07-06 07:41:00,66.9,66.0,30.06,South,184,0.0,0.0,97,0.00,,,0.00,LWC V1.12 B30,2013-07-06 11:41:00,
2013-07-06 07:47:00,67.3,66.4,30.06,South,184,0.0,1.0,97,0.00,,,0.00,LWC V1.12 B30,2013-07-06 11:47:00,
2013-07-06 07:53:00,67.9,67.0,30.06,South,184,2.0,2.0,97,0.00,,,0.00,LWC V1.12 B30,2013-07-06 11:53:00,
2013-07-06 07:59:00,68.3,67.4,30.06,South,184,0.0,0.0,97,0.00,,,0.00,LWC V1.12 B30,2013-07-06 11:59:00,
2013-07-06 08:05:00,68.4,67.5,30.06,South,184,0.0,0.0,97,0.00,,,0.00,LWC V1.12 B30,2013-07-06 12:05:00,
2013-07-06 08:11:00,68.8,67.9,30.06,South,184,0.0,0.0,97,0.00,,,0.00,LWC V1.12 B30,2013-07-06 12:11:00,
2013-07-06 08:17:00,69.1,68.2,30.06,South,184,0.0,0.0,97,0.00,,,0.00,LWC V1.12 B30,2013-07-06 12:17:00,
2013-07-06 08:23:00,69.3,68.1,30.06,South,184,0.0,0.0,96,0.00,,,0.00,LWC V1.12 B30,2013-07-06 12:23:00,
2013-07-06 08:29:00,69.8,68.6,30.06,South,184,0.0,0.0,96,0.00,,,0.00,LWC V1.12 B30,2013-07-06 12:29:00,
2013-07-06 08:35:00,70.1,68.6,30.06,South,184,0.0,1.0,95,0.00,,,0.00,LWC V1.12 B30,2013-07-06 12:35:00,
2013-07-06 08:41:00,70.4,68.3,30.06,South,184,0.0,0.0,93,0.00,,,0.00,LWC V1.12 B30,2013-07-06 12:41:00,
2013-07-06 08:47:00,70.9,68.1,30.06,South,184,0.0,1.0,91,0.00,,,0.00,LWC V1.12 B30,2013-07-06 12:47:00,
2013-07-06 08:53:00,71.3,67.9,30.06,South,184,0.0,0.0,89,0.00,,,0.00,LWC V1.12 B30,2013-07-06 12:53:00,
2013-07-06 08:59:00,71.6,67.8,30.07,South,184,0.0,0.0,88,0.00,,,0.00,LWC V1.12 B30,2013-07-06 12:59:00,
2013-07-06 09:05:00,72.1,68.0,30.07,South,184,0.0,1.0,87,0.00,,,0.00,LWC V1.12 B30,2013-07-06 13:05:00,
2013-07-06 09:11:00,72.5,68.1,30.06,South,184,0.0,1.0,86,0.00,,,0.00,LWC V1.12 B30,2013-07-06 13:11:00,
2013-07-06 09:17:00,72.8,68.0,30.07,South,184,0.0,1.0,85,0.00,,,0.00,LWC V1.12 B30,2013-07-06 13:17:00,
2013-07-06 09:23:00,73.2,67.7,30.07,South,184,0.0,1.0,83,0.00,,,0.00,LWC V1.12 B30,2013-07-06 13:23:00,
2013-07-06 09:29:00,73.7,67.8,30.07,South,184,0.0,1.0,82,0.00,,,0.00,LWC V1.12 B30,2013-07-06 13:29:00,
2013-07-06 09:35:00,73.9,67.7,30.07,South,184,0.0,2.0,81,0.00,,,0.00,LWC V1.12 B30,2013-07-06 13:35:00,
2013-07-06 09:41:00,74.6,68.0,30.06,SSE,157,0.0,1.0,80,0.00,,,0.00,LWC V1.12 B30,2013-07-06 13:41:00,
2013-07-06 09:47:00,74.9,68.3,30.06,SSE,157,0.0,1.0,80,0.00,,,0.00,LWC V1.12 B30,2013-07-06 13:47:00,
2013-07-06 09:53:00,74.9,67.6,30.06,SSE,165,0.0,1.0,78,0.00,,,0.00,LWC V1.12 B30,2013-07-06 13:53:00,
2013-07-06 09:59:00,74.9,67.6,30.06,SSE,165,0.0,0.0,78,0.00,,,0.00,LWC V1.12 B30,2013-07-06 13:59:00,
2013-07-06 10:05:00,75.3,67.6,30.06,SSE,167,0.0,2.0,77,0.00,,,0.00,LWC V1.12 B30,2013-07-06 14:05:00,
2013-07-06 10:11:00,75.4,67.7,30.06,SSE,167,0.0,0.0,77,0.00,,,0.00,LWC V1.12 B30,2013-07-06 14:11:00,
2013-07-06 10:17:00,76.0,67.5,30.05,SSE,167,0.0,1.0,75,0.00,,,0.00,LWC V1.12 B30,2013-07-06 14:17:00,
2013-07-06 10:23:00,76.3,67.8,30.05,SSE,167,0.0,1.0,75,0.00,,,0.00,LWC V1.12 B30,2013-07-06 14:23:00,
2013-07-06 10:29:00,76.3,67.4,30.05,South,176,1.0,2.0,74,0.00,,,0.00,LWC V1.12 B30,2013-07-06 14:29:00,
2013-07-06 10:35:00,76.7,67.4,30.05,South,177,0.0,4.0,73,0.00,,,0.00,LWC V1.12 B30,2013-07-06 14:35:00,
2013-07-06 10:41:00,77.4,67.2,30.05,SSE,161,0.0,4.0,71,0.00,,,0.00,LWC V1.12 B30,2013-07-06 14:41:00,
2013-07-06 10:47:00,78.3,67.3,30.05,South,177,0.0,2.0,69,0.00,,,0.00,LWC V1.12 B30,2013-07-06 14:47:00,
2013-07-06 10:53:00,78.6,65.8,30.05,SSW,192,1.0,4.0,65,0.00,,,0.00,LWC V1.12 B30,2013-07-06 14:53:00,
2013-07-06 10:59:00,78.8,66.9,30.04,SSW,192,0.0,1.0,67,0.00,,,0.00,LWC V1.12 B30,2013-07-06 14:59:00,
2013-07-06 11:05:00,79.0,67.1,30.05,SSW,192,1.0,2.0,67,0.00,,,0.00,LWC V1.12 B30,2013-07-06 15:05:00,
2013-07-06 11:11:00,79.0,67.1,30.05,SSW,192,0.0,1.0,67,0.00,,,0.00,LWC V1.12 B30,2013-07-06 15:11:00,
2013-07-06 11:17:00,79.4,67.5,30.05,South,178,0.0,2.0,67,0.00,,,0.00,LWC V1.12 B30,2013-07-06 15:17:00,
2013-07-06 11:23:00,80.1,66.8,30.05,SSE,167,0.0,4.0,64,0.00,,,0.00,LWC V1.12 B30,2013-07-06 15:23:00,
2013-07-06 11:29:00,80.5,67.2,30.05,South,178,0.0,4.0,64,0.00,,,0.00,LWC V1.12 B30,2013-07-06 15:29:00,
2013-07-06 11:35:00,81.1,67.7,30.05,ESE,110,0.0,4.0,64,0.00,,,0.00,LWC V1.12 B30,2013-07-06 15:35:00,
2013-07-06 11:41:00,80.9,67.1,30.05,SSW,196,2.0,5.0,63,0.00,,,0.00,LWC V1.12 B30,2013-07-06 15:41:00,
2013-07-06 11:47:00,80.7,66.4,30.04,SSW,192,0.0,2.0,62,0.00,,,0.00,LWC V1.12 B30,2013-07-06 15:47:00,
2013-07-06 11:53:00,80.1,67.2,30.04,SSW,195,1.0,2.0,65,0.00,,,0.00,LWC V1.12 B30,2013-07-06 15:53:00,
2013-07-06 11:59:00,79.6,66.8,30.04,SSW,211,4.0,4.0,65,0.00,,,0.00,LWC V1.12 B30,2013-07-06 15:59:00,
2013-07-06 12:05:00,79.2,67.3,30.04,SW,227,0.0,1.0,67,0.00,,,0.00,LWC V1.12 B30,2013-07-06 16:05:00,
2013-07-06 12:11:00,79.2,66.8,30.04,South,186,0.0,6.0,66,0.00,,,0.00,LWC V1.12 B30,2013-07-06 16:11:00,
2013-07-06 12:17:00,79.2,68.1,30.04,South,186,0.0,0.0,69,0.00,,,0.00,LWC V1.12 B30,2013-07-06 16:17:00,
2013-07-06 12:23:00,79.2,67.3,30.04,SSW,194,1.0,2.0,67,0.00,,,0.00,LWC V1.12 B30,2013-07-06 16:23:00,
2013-07-06 12:31:00,78.6,66.7,30.04,SSW,198,1.0,2.0,67,0.00,,,0.00,LWC V1.12 B30,2013-07-06 16:31:00,
2013-07-06 12:41:00,78.5,67.5,30.04,SW,218,0.0,1.0,69,0.00,,,0.00,LWC V1.12 B30,2013-07-06 16:41:00,
2013-07-06 12:49:00,79.0,66.6,30.03,SSW,200,0.0,0.0,66,0.00,,,0.00,LWC V1.12 B30,2013-07-06 16:49:00,
2013-07-06 12:55:00,79.6,66.8,30.03,South,188,5.0,10.0,65,0.00,,,0.00,LWC V1.12 B30,2013-07-06 16:55:00,
2013-07-06 13:01:00,79.9,67.1,30.03,South,180,1.0,4.0,65,0.00,,,0.00,LWC V1.12 B30,2013-07-06 17:01:00,
2013-07-06 13:07:00,79.8,66.5,30.03,SSW,201,0.0,1.0,64,0.00,,,0.00,LWC V1.12 B30,2013-07-06 17:07:00,
2013-07-06 13:13:00,79.8,67.8,30.02,South,185,0.0,1.0,67,0.00,,,0.00,LWC V1.12 B30,2013-07-06 17:13:00,
2013-07-06 13:23:00,80.3,67.0,30.02,SE,128,1.0,4.0,64,0.00,,,0.00,LWC V1.12 B30,2013-07-06 17:23:00,
2013-07-06 13:31:00,80.9,66.6,30.02,SE,140,1.0,6.0,62,0.00,,,0.00,LWC V1.12 B30,2013-07-06 17:31:00,
2013-07-06 13:37:00,81.2,66.9,30.01,SSW,200,1.0,3.0,62,0.00,,,0.00,LWC V1.12 B30,2013-07-06 17:37:00,
2013-07-06 13:45:00,81.4,66.2,30.01,SSW,205,1.0,3.0,60,0.00,,,0.00,LWC V1.12 B30,2013-07-06 17:45:00,
2013-07-06 13:51:00,81.8,66.0,30.01,SSW,208,1.0,5.0,59,0.00,,,0.00,LWC V1.12 B30,2013-07-06 17:51:00,
2013-07-06 13:57:00,82.0,67.2,30.01,SSW,209,1.0,2.0,61,0.00,,,0.00,LWC V1.12 B30,2013-07-06 17:57:00,
2013-07-06 14:03:00,81.6,66.8,30.01,SSW,207,1.0,2.0,61,0.00,,,0.00,LWC V1.12 B30,2013-07-06 18:03:00,
2013-07-06 14:09:00,81.1,67.7,30.01,South,175,0.0,4.0,64,0.00,,,0.00,LWC V1.12 B30,2013-07-06 18:09:00,
2013-07-06 14:15:00,80.5,67.6,30.01,SE,130,0.0,1.0,65,0.00,,,0.00,LWC V1.12 B30,2013-07-06 18:15:00,
2013-07-06 14:23:00,80.1,68.1,30.00,South,182,0.0,2.0,67,0.00,,,0.00,LWC V1.12 B30,2013-07-06 18:23:00,
2013-07-06 14:31:00,80.1,68.1,30.00,South,186,3.0,4.0,67,0.00,,,0.00,LWC V1.12 B30,2013-07-06 18:31:00,
2013-07-06 14:41:00,80.1,68.1,29.99,SW,225,1.0,4.0,67,0.00,,,0.00,LWC V1.12 B30,2013-07-06 18:41:00,
2013-07-06 14:49:00,80.7,67.8,29.99,South,181,0.0,2.0,65,0.00,,,0.00,LWC V1.12 B30,2013-07-06 18:49:00,
2013-07-06 14:57:00,80.7,67.8,29.99,East,98,1.0,2.0,65,0.00,,,0.00,LWC V1.12 B30,2013-07-06 18:57:00,
2013-07-06 15:05:00,80.5,67.6,29.99,SSW,209,2.0,6.0,65,0.00,,,0.00,LWC V1.12 B30,2013-07-06 19:05:00,
2013-07-06 15:13:00,80.3,67.4,29.99,West,281,0.0,4.0,65,0.00,,,0.00,LWC V1.12 B30,2013-07-06 19:13:00,
2013-07-06 15:21:00,80.7,67.4,29.99,SSW,213,0.0,1.0,64,0.00,,,0.00,LWC V1.12 B30,2013-07-06 19:21:00,
2013-07-06 15:29:00,81.1,67.3,29.99,South,183,0.0,5.0,63,0.00,,,0.00,LWC V1.12 B30,2013-07-06 19:29:00,
2013-07-06 15:35:00,81.1,67.7,29.99,SSW,194,2.0,2.0,64,0.00,,,0.00,LWC V1.12 B30,2013-07-06 19:35:00,
2013-07-06 15:41:00,80.9,67.1,29.99,SSW,213,2.0,4.0,63,0.00,,,0.00,LWC V1.12 B30,2013-07-06 19:41:00,
2013-07-06 15:47:00,80.7,66.9,29.99,South,188,1.0,5.0,63,0.00,,,0.00,LWC V1.12 B30,2013-07-06 19:47:00,
2013-07-06 15:53:00,80.7,66.9,29.99,SW,217,2.0,4.0,63,0.00,,,0.00,LWC V1.12 B30,2013-07-06 19:53:00,
2013-07-06 15:59:00,80.3,67.4,29.99,SSW,207,1.0,2.0,65,0.00,,,0.00,LWC V1.12 B30,2013-07-06 19:59:00,
2013-07-06 16:05:00,80.3,67.4,29.99,SSW,207,1.0,1.0,65,0.00,,,0.00,LWC V1.12 B30,2013-07-06 20:05:00,
2013-07-06 16:11:00,80.3,67.0,29.99,SSW,200,0.0,4.0,64,0.00,,,0.00,LWC V1.12 B30,2013-07-06 20:11:00,
2013-07-06 16:19:00,80.1,67.2,29.98,SSW,196,0.0,0.0,65,0.00,,,0.00,LWC V1.12 B30,2013-07-06 20:19:00,
2013-07-06 16:25:00,80.1,67.7,29.98,South,172,0.0,2.0,66,0.00,,,0.00,LWC V1.12 B30,2013-07-06 20:25:00,
2013-07-06 16:31:00,80.1,68.1,29.97,SSE,159,1.0,1.0,67,0.00,,,0.00,LWC V1.12 B30,2013-07-06 20:31:00,
2013-07-06 16:41:00,80.1,68.1,29.98,SE,145,1.0,2.0,67,0.00,,,0.00,LWC V1.12 B30,2013-07-06 20:41:00,
2013-07-06 16:47:00,80.1,67.7,29.98,SSW,206,2.0,3.0,66,0.00,,,0.00,LWC V1.12 B30,2013-07-06 20:47:00,
2013-07-06 16:53:00,79.9,67.5,29.98,SSW,204,0.0,4.0,66,0.00,,,0.00,LWC V1.12 B30,2013-07-06 20:53:00,
2013-07-06 16:59:00,79.9,67.5,29.98,SSW,202,0.0,2.0,66,0.00,,,0.00,LWC V1.12 B30,2013-07-06 20:59:00,
2013-07-06 17:05:00,79.9,67.9,29.98,SSW,202,0.0,2.0,67,0.00,,,0.00,LWC V1.12 B30,2013-07-06 21:05:00,
2013-07-06 17:17:00,78.8,68.6,29.98,SW,214,1.0,2.0,71,0.00,,,0.00,LWC V1.12 B30,2013-07-06 21:17:00,
2013-07-06 17:23:00,76.5,68.7,29.98,East,91,1.0,4.0,77,0.23,,,0.00,LWC V1.12 B30,2013-07-06 21:23:00,
2013-07-06 17:31:00,74.6,69.1,29.99,East,98,0.0,0.0,83,0.08,,,0.06,LWC V1.12 B30,2013-07-06 21:31:00,
2013-07-06 17:39:00,73.3,68.8,29.98,East,96,0.0,0.0,86,0.05,,,0.06,LWC V1.12 B30,2013-07-06 21:39:00,
2013-07-06 17:45:00,73.0,69.2,29.98,East,96,0.0,0.0,88,0.05,,,0.06,LWC V1.12 B30,2013-07-06 21:45:00,
2013-07-06 17:51:00,72.7,69.3,29.98,East,100,0.0,0.0,89,0.04,,,0.07,LWC V1.12 B30,2013-07-06 21:51:00,
2013-07-06 17:57:00,72.5,69.1,29.97,East,100,0.0,0.0,89,0.00,,,0.07,LWC V1.12 B30,2013-07-06 21:57:00,
2013-07-06 18:03:00,72.3,69.2,29.97,East,100,0.0,0.0,90,0.00,,,0.08,LWC V1.12 B30,2013-07-06 22:03:00,
2013-07-06 18:09:00,72.3,69.2,29.97,East,100,0.0,0.0,90,0.00,,,0.08,LWC V1.12 B30,2013-07-06 22:09:00,
2013-07-06 18:15:00,72.7,69.9,29.97,East,100,0.0,0.0,91,0.00,,,0.08,LWC V1.12 B30,2013-07-06 22:15:00,
2013-07-06 18:21:00,72.7,70.2,29.97,East,100,0.0,0.0,92,0.00,,,0.08,LWC V1.12 B30,2013-07-06 22:21:00,
2013-07-06 18:31:00,72.8,70.3,29.96,East,100,0.0,0.0,92,0.00,,,0.08,LWC V1.12 B30,2013-07-06 22:31:00,
2013-07-06 18:39:00,73.0,70.8,29.96,ESE,111,0.0,1.0,93,0.00,,,0.08,LWC V1.12 B30,2013-07-06 22:39:00,
2013-07-06 18:45:00,73.0,70.8,29.96,ESE,111,0.0,1.0,93,0.00,,,0.08,LWC V1.12 B30,2013-07-06 22:45:00,
2013-07-06 18:53:00,73.0,70.8,29.96,ESE,111,0.0,0.0,93,0.00,,,0.08,LWC V1.12 B30,2013-07-06 22:53:00,
2013-07-06 19:03:00,72.8,71.0,29.95,ESE,111,1.0,1.0,94,0.00,,,0.08,LWC V1.12 B30,2013-07-06 23:03:00,
2013-07-06 19:09:00,73.0,71.2,29.95,ESE,111,0.0,1.0,94,0.00,,,0.08,LWC V1.12 B30,2013-07-06 23:09:00,
2013-07-06 19:17:00,73.0,71.2,29.95,SE,135,0.0,1.0,94,0.00,,,0.08,LWC V1.12 B30,2013-07-06 23:17:00,
2013-07-06 19:23:00,72.8,71.0,29.95,SE,136,0.0,0.0,94,0.00,,,0.08,LWC V1.12 B30,2013-07-06 23:23:00,
2013-07-06 19:33:00,72.7,70.9,29.95,SE,136,0.0,0.0,94,0.00,,,0.08,LWC V1.12 B30,2013-07-06 23:33:00,
2013-07-06 19:39:00,72.7,70.9,29.95,SE,136,0.0,1.0,94,0.00,,,0.08,LWC V1.12 B30,2013-07-06 23:39:00,
2013-07-06 19:45:00,72.5,70.7,29.95,SSE,160,0.0,1.0,94,0.00,,,0.08,LWC V1.12 B30,2013-07-06 23:45:00,
2013-07-06 19:51:00,72.3,70.2,29.95,NE,55,0.0,1.0,93,0.00,,,0.08,LWC V1.12 B30,2013-07-06 23:51:00,
2013-07-06 19:57:00,72.0,69.9,29.95,SSE,157,0.0,1.0,93,0.00,,,0.08,LWC V1.12 B30,2013-07-06 23:57:00,
2013-07-06 20:03:00,71.8,69.7,29.94,South,188,0.0,1.0,93,0.00,,,0.08,LWC V1.12 B30,2013-07-07 00:03:00,
2013-07-06 20:11:00,71.6,69.5,29.94,South,188,0.0,0.0,93,0.00,,,0.08,LWC V1.12 B30,2013-07-07 00:11:00,
2013-07-06 20:17:00,71.6,69.5,29.94,South,188,0.0,0.0,93,0.00,,,0.08,LWC V1.12 B30,2013-07-07 00:17:00,
2013-07-06 20:23:00,71.6,69.5,29.94,South,188,0.0,1.0,93,0.00,,,0.08,LWC V1.12 B30,2013-07-07 00:23:00,
2013-07-06 20:29:00,71.5,69.4,29.95,South,188,0.0,0.0,93,0.00,,,0.08,LWC V1.12 B30,2013-07-07 00:29:00,
2013-07-06 20:35:00,71.5,69.4,29.95,South,188,0.0,0.0,93,0.00,,,0.08,LWC V1.12 B30,2013-07-07 00:35:00,
2013-07-06 20:43:00,71.3,69.2,29.95,South,188,0.0,0.0,93,0.00,,,0.08,LWC V1.12 B30,2013-07-07 00:43:00,
2013-07-06 20:53:00,71.1,69.3,29.96,South,188,0.0,0.0,94,0.00,,,0.08,LWC V1.12 B30,2013-07-07 00:53:00,
2013-07-06 20:59:00,71.1,69.3,29.96,South,188,0.0,0.0,94,0.00,,,0.08,LWC V1.12 B30,2013-07-07 00:59:00,
2013-07-06 21:05:00,71.1,69.3,29.96,South,188,0.0,0.0,94,0.00,,,0.08,LWC V1.12 B30,2013-07-07 01:05:00,
2013-07-06 21:11:00,70.9,69.1,29.96,South,188,0.0,0.0,94,0.00,,,0.08,LWC V1.12 B30,2013-07-07 01:11:00,
2013-07-06 21:17:00,70.9,69.1,29.96,South,188,1.0,1.0,94,0.00,,,0.08,LWC V1.12 B30,2013-07-07 01:17:00,
2013-07-06 21:25:00,70.9,69.1,29.96,South,188,0.0,0.0,94,0.00,,,0.08,LWC V1.12 B30,2013-07-07 01:25:00,
2013-07-06 21:31:00,70.9,69.1,29.96,South,188,0.0,0.0,94,0.00,,,0.08,LWC V1.12 B30,2013-07-07 01:31:00,
2013-07-06 21:37:00,70.9,69.4,29.96,South,188,0.0,0.0,95,0.00,,,0.08,LWC V1.12 B30,2013-07-07 01:37:00,
2013-07-06 21:47:00,70.9,69.4,29.96,South,188,0.0,0.0,95,0.00,,,0.08,LWC V1.12 B30,2013-07-07 01:47:00,
2013-07-06 21:53:00,70.8,69.3,29.96,South,188,0.0,0.0,95,0.00,,,0.08,LWC V1.12 B30,2013-07-07 01:53:00,
2013-07-06 21:59:00,70.8,69.3,29.97,South,188,0.0,0.0,95,0.00,,,0.08,LWC V1.12 B30,2013-07-07 01:59:00,
2013-07-06 22:07:00,70.8,69.3,29.97,South,188,0.0,0.0,95,0.00,,,0.08,LWC V1.12 B30,2013-07-07 02:07:00,
2013-07-06 22:15:00,70.8,69.3,29.96,South,188,0.0,0.0,95,0.00,,,0.08,LWC V1.12 B30,2013-07-07 02:15:00,
2013-07-06 22:21:00,70.6,69.1,29.96,South,188,0.0,0.0,95,0.00,,,0.08,LWC V1.12 B30,2013-07-07 02:21:00,
2013-07-06 22:27:00,70.6,69.4,29.96,South,188,0.0,0.0,96,0.00,,,0.08,LWC V1.12 B30,2013-07-07 02:27:00,
2013-07-06 22:35:00,70.6,69.4,29.97,South,188,0.0,0.0,96,0.00,,,0.08,LWC V1.12 B30,2013-07-07 02:35:00,
2013-07-06 22:41:00,70.6,69.4,29.97,South,188,0.0,0.0,96,0.00,,,0.08,LWC V1.12 B30,2013-07-07 02:41:00,
2013-07-06 22:47:00,70.6,69.4,29.98,South,188,0.0,1.0,96,0.00,,,0.08,LWC V1.12 B30,2013-07-07 02:47:00,
2013-07-06 22:53:00,70.6,69.4,29.98,South,188,0.0,1.0,96,0.00,,,0.08,LWC V1.12 B30,2013-07-07 02:53:00,
2013-07-06 23:05:00,70.6,69.4,29.98,South,188,0.0,0.0,96,0.00,,,0.08,LWC V1.12 B30,2013-07-07 03:05:00,
2013-07-06 23:15:00,70.4,69.2,29.98,South,188,0.0,0.0,96,0.00,,,0.08,LWC V1.12 B30,2013-07-07 03:15:00,
2013-07-06 23:21:00,70.4,69.2,29.97,South,188,0.0,0.0,96,0.00,,,0.08,LWC V1.12 B30,2013-07-07 03:21:00,
2013-07-06 23:27:00,70.3,69.1,29.98,South,188,0.0,0.0,96,0.00,,,0.08,LWC V1.12 B30,2013-07-07 03:27:00,
2013-07-06 23:35:00,70.3,69.1,29.98,South,188,0.0,0.0,96,0.00,,,0.08,LWC V1.12 B30,2013-07-07 03:35:00,
2013-07-06 23:41:00,70.3,69.1,29.98,South,188,0.0,0.0,96,0.00,,,0.08,LWC V1.12 B30,2013-07-07 03:41:00,
2013-07-06 23:47:00,70.3,69.1,29.98,South,188,0.0,1.0,96,0.00,,,0.08,LWC V1.12 B30,2013-07-07 03:47:00,
2013-07-06 23:53:00,70.1,68.9,29.98,South,188,1.0,2.0,96,0.00,,,0.08,LWC V1.12 B30,2013-07-07 03:53:00,